�N����,����,�~����,�C��,���x,�C��,����,���ϕ���,�ő�u�ԕ���,�ő厞����,���˗�,�I�_���x,�n�����x,�ő啗���N��,DTYPE
"20/06/17","00:10",0.0,18.0,85.6,1000.8,328.4,1.5,2.9,337.0,0.00,15.6,22.1,"00:09:04",1
"20/06/17","00:20",0.0,18.0,85.7,1000.8,320.4,1.3,3.1,338.9,0.00,15.6,22.0,"00:15:52",1
"20/06/17","00:30",0.0,18.0,85.7,1000.5,292.9,0.7,1.2,324.9,0.00,15.6,21.9,"00:26:00",1
"20/06/17","00:40",0.0,17.8,85.7,1001.0,307.3,1.0,1.4,313.9,0.00,15.4,22.1,"00:32:24",1
"20/06/17","00:50",0.0,17.6,85.8,1000.5,301.5,1.1,1.8,329.7,0.00,15.2,22.0,"00:49:12",1
"20/06/17","01:00",0.0,17.5,85.9,1000.5,306.2,0.8,1.8,331.0,0.00,15.2,22.0,"00:57:36",1
"20/06/17","01:10",0.0,17.6,86.0,1000.8,325.3,1.2,1.8,336.0,0.00,15.3,21.7,"01:06:00",1
"20/06/17","01:20",0.0,17.8,85.6,1001.0,318.0,1.2,2.8,335.0,0.00,15.4,21.7,"01:18:00",1
"20/06/17","01:30",0.0,17.9,85.4,1001.0,319.2,1.5,2.2,329.8,0.00,15.5,21.6,"01:27:20",1
"20/06/17","01:40",0.0,17.6,85.4,1000.8,271.6,1.1,2.0,316.5,0.00,15.2,21.6,"01:37:20",1
"20/06/17","01:50",0.0,17.4,85.4,1000.5,270.2,0.7,1.3,269.6,0.00,15.0,21.6,"01:42:24",1
"20/06/17","02:00",0.0,17.2,85.5,1000.8,298.3,1.1,2.0,317.1,0.00,14.8,21.6,"01:52:56",1
"20/06/17","02:10",0.0,17.0,85.8,1000.8,300.8,1.0,1.6,321.7,0.00,14.6,21.3,"02:01:44",1
"20/06/17","02:20",0.0,17.0,86.2,1001.0,276.4,1.1,1.6,296.5,0.00,14.7,21.3,"02:15:20",1
"20/06/17","02:30",0.0,17.0,86.6,1000.8,311.5,1.2,2.4,312.8,0.00,14.8,21.4,"02:28:16",1
"20/06/17","02:40",0.0,17.0,87.0,1001.0,320.5,1.0,1.8,353.8,0.00,14.9,21.3,"02:37:44",1
"20/06/17","02:50",0.0,16.8,87.4,1001.0,303.9,1.0,1.8,321.5,0.00,14.7,21.4,"02:41:44",1
"20/06/17","03:00",0.0,16.6,87.8,1000.8,295.6,1.2,1.9,319.0,0.00,14.6,21.2,"02:56:24",1
"20/06/17","03:10",0.0,16.4,88.2,1001.0,296.4,1.1,2.2,319.0,0.00,14.5,21.2,"03:08:40",1
"20/06/17","03:20",0.0,16.3,88.6,1001.0,294.6,1.2,2.0,318.4,0.00,14.5,21.2,"03:12:48",1
"20/06/17","03:30",0.0,16.2,89.0,1000.8,265.1,1.0,1.6,262.1,0.00,14.4,21.0,"03:27:20",1
"20/06/17","03:40",0.0,16.2,89.2,1000.8,276.2,1.1,1.4,300.4,0.00,14.5,21.0,"03:30:08",1
"20/06/17","03:50",0.0,16.2,89.5,1000.8,304.1,1.2,2.1,327.8,0.00,14.5,21.0,"03:46:24",1
"20/06/17","04:00",0.0,16.0,89.8,1000.5,277.1,1.0,1.3,266.8,0.00,14.4,21.0,"03:51:28",1
"20/06/17","04:10",0.0,16.0,90.0,1000.8,305.5,1.2,2.0,335.4,0.00,14.4,20.8,"04:05:20",1
"20/06/17","04:20",0.0,16.1,90.3,1000.8,319.8,1.3,2.6,320.7,0.00,14.6,20.7,"04:15:44",1
"20/06/17","04:30",0.0,16.0,90.6,1001.0,289.6,1.2,2.0,337.1,0.00,14.5,20.7,"04:28:16",1
"20/06/17","04:40",0.0,16.2,90.8,1001.2,321.4,1.7,2.7,329.0,0.00,14.7,20.7,"04:35:52",1
"20/06/17","04:50",0.0,16.4,90.9,1000.8,316.3,1.5,2.5,334.0,0.00,15.0,20.6,"04:42:40",1
"20/06/17","05:00",0.0,16.5,91.1,1001.0,322.6,1.8,2.8,345.6,0.00,15.1,20.7,"04:52:32",1
"20/06/17","05:10",0.0,16.4,91.2,1001.5,283.9,0.7,1.4,308.8,0.00,15.0,20.8,"05:01:28",1
"20/06/17","05:20",0.0,16.4,91.3,1001.7,305.8,0.1,0.9,336.2,0.00,15.0,20.8,"05:18:16",1
"20/06/17","05:30",0.0,16.5,91.4,1001.7,245.9,0.2,0.8,293.6,0.00,15.1,20.7,"05:20:16",1
"20/06/17","05:40",0.0,16.7,91.5,1001.7,313.4,0.8,2.2,324.6,0.01,15.3,20.8,"05:38:56",1
"20/06/17","05:50",0.0,16.9,91.5,1001.9,323.4,2.0,2.6,321.2,0.02,15.5,20.7,"05:44:00",1
"20/06/17","06:00",0.0,17.3,91.4,1001.7,332.7,1.6,3.4,341.8,0.04,15.9,20.8,"05:59:52",1
"20/06/17","06:10",0.0,17.9,91.3,1002.2,333.1,1.7,3.1,325.4,0.07,16.5,20.7,"06:00:40",1
"20/06/17","06:20",0.0,18.4,90.6,1002.2,341.2,1.5,3.1,343.8,0.09,16.9,20.9,"06:11:20",1
"20/06/17","06:30",0.0,18.9,89.2,1002.6,343.1,1.7,3.4,324.6,0.11,17.1,20.7,"06:25:12",1
"20/06/17","06:40",0.0,19.6,87.5,1002.6,342.3,1.3,2.4,345.4,0.12,17.5,21.0,"06:37:12",1
"20/06/17","06:50",0.0,20.5,85.4,1002.4,356.4,1.0,2.6,340.1,0.15,18.0,21.2,"06:40:48",1
"20/06/17","07:00",0.0,21.0,82.3,1002.6,24.8,0.6,1.9,356.9,0.15,17.9,21.2,"06:51:36",1
"20/06/17","07:10",0.0,21.5,78.6,1002.4,355.6,0.8,2.4,354.4,0.18,17.7,21.2,"07:08:00",1
"20/06/17","07:20",0.0,21.8,74.1,1002.6,349.8,1.0,2.5,339.8,0.18,17.0,21.6,"07:13:12",1
"20/06/17","07:30",0.0,21.8,71.9,1002.4,337.5,0.7,2.0,345.7,0.15,16.5,21.6,"07:20:24",1
"20/06/17","07:40",0.0,21.5,70.8,1001.9,320.4,1.0,2.9,349.7,0.13,16.0,21.8,"07:31:12",1
"20/06/17","07:50",0.0,21.5,71.7,1001.9,321.0,1.2,2.7,337.7,0.15,16.2,22.0,"07:44:56",1
"20/06/17","08:00",0.0,22.2,71.5,1002.2,303.9,1.2,2.2,219.0,0.27,16.8,22.0,"07:56:56",1
"20/06/17","08:10",0.0,22.5,70.2,1001.9,284.7,1.1,2.1,346.5,0.24,16.8,22.1,"08:09:20",1
"20/06/17","08:20",0.0,22.8,69.5,1001.5,265.6,1.2,2.7,269.7,0.32,17.0,22.3,"08:12:40",1
"20/06/17","08:30",0.0,23.2,68.3,1001.5,301.6,1.2,2.5,331.0,0.35,17.1,22.7,"08:21:04",1
"20/06/17","08:40",0.0,23.8,66.0,1001.5,251.1,1.1,3.2,255.4,0.40,17.1,22.8,"08:30:16",1
"20/06/17","08:50",0.0,24.3,64.4,1001.2,175.4,1.3,2.9,213.5,0.42,17.2,23.1,"08:41:36",1
"20/06/17","09:00",0.0,24.7,62.2,1001.0,188.0,1.1,2.9,228.4,0.44,17.0,23.2,"08:56:24",1
"20/06/17","09:10",0.0,24.6,62.4,1001.0,174.2,1.6,3.2,221.9,0.46,17.0,23.6,"09:05:36",1
"20/06/17","09:20",0.0,25.0,62.5,1000.8,158.9,1.3,3.3,193.0,0.46,17.4,24.0,"09:13:36",1
"20/06/17","09:30",0.0,25.3,61.9,1000.0,188.4,1.3,2.8,186.5,0.50,17.5,24.1,"09:25:12",1
"20/06/17","09:40",0.0,25.4,60.7,1000.5,138.1,1.7,3.6,107.3,0.51,17.3,24.4,"09:39:04",1
"20/06/17","09:50",0.0,25.4,59.7,1000.3,202.2,1.3,3.9,226.8,0.49,17.0,24.7,"09:44:48",1
"20/06/17","10:00",0.0,25.5,57.2,1000.3,176.4,1.0,2.5,209.2,0.41,16.5,24.9,"09:50:24",1
"20/06/17","10:10",0.0,25.7,57.0,1000.0,132.8,1.3,3.3,107.8,0.45,16.6,25.3,"10:03:52",1
"20/06/17","10:20",0.0,25.8,56.6,1000.3,183.8,1.6,3.3,220.8,0.55,16.6,25.6,"10:19:04",1
"20/06/17","10:30",0.0,26.2,54.5,1000.3,199.2,1.3,4.0,328.8,0.56,16.3,25.8,"10:29:20",1
"20/06/17","10:40",0.0,26.8,53.6,1000.0,257.8,1.1,3.2,339.7,0.59,16.6,26.1,"10:37:52",1
"20/06/17","10:50",0.0,26.9,55.2,1000.0,219.7,1.3,3.3,244.9,0.60,17.2,26.1,"10:44:32",1
"20/06/17","11:00",0.0,27.5,56.5,999.8,169.0,1.3,3.7,201.8,0.61,18.1,26.7,"10:54:16",1
"20/06/17","11:10",0.0,26.9,54.0,1000.0,177.6,1.7,3.2,199.3,0.55,16.9,26.7,"11:07:04",1
"20/06/17","11:20",0.0,27.9,53.3,999.8,149.9,0.6,1.8,94.2,0.58,17.6,27.2,"11:16:40",1
"20/06/17","11:30",0.0,28.1,49.9,999.8,30.9,0.8,1.9,6.1,0.58,16.7,27.5,"11:28:16",1
"20/06/17","11:40",0.0,28.1,49.6,1000.0,208.1,1.1,3.3,214.5,0.54,16.6,27.8,"11:39:52",1
"20/06/17","11:50",0.0,27.5,52.4,999.8,195.1,1.6,3.7,229.3,0.48,16.9,27.6,"11:46:08",1
"20/06/17","12:00",0.0,27.6,50.7,999.6,145.7,1.1,2.8,139.2,0.49,16.5,28.0,"11:55:52",1
"20/06/17","12:10",0.0,28.2,49.0,999.8,214.0,1.2,3.2,195.3,0.64,16.5,28.1,"12:01:04",1
"20/06/17","12:20",0.0,28.3,50.8,999.8,145.6,1.5,3.1,130.2,0.63,17.2,28.2,"12:17:44",1
"20/06/17","12:30",0.0,28.7,46.3,999.6,85.3,1.1,3.5,164.8,0.63,16.1,28.7,"12:21:20",1
"20/06/17","12:40",0.0,29.1,47.4,999.8,209.2,1.3,3.6,211.7,0.61,16.8,28.7,"12:36:56",1
"20/06/17","12:50",0.0,29.5,43.8,999.8,179.6,1.2,3.2,203.8,0.63,15.9,28.5,"12:40:48",1
"20/06/17","13:00",0.0,29.1,44.4,999.8,149.4,1.3,4.1,122.3,0.53,15.8,28.6,"12:52:56",1
"20/06/17","13:10",0.0,29.6,43.8,999.6,122.7,1.1,2.8,115.5,0.51,16.0,28.5,"13:06:56",1
"20/06/17","13:20",0.0,29.9,43.8,999.6,169.9,1.0,2.2,160.1,0.59,16.3,28.3,"13:18:32",1
"20/06/17","13:30",0.0,29.8,44.4,999.8,156.7,1.8,3.7,144.9,0.55,16.4,28.3,"13:23:52",1
"20/06/17","13:40",0.0,29.7,41.0,999.6,190.6,1.5,3.3,103.8,0.57,15.1,27.9,"13:30:24",1
"20/06/17","13:50",0.0,30.3,39.9,999.8,237.0,1.2,4.0,50.9,0.55,15.2,27.9,"13:41:04",1
"20/06/17","14:00",0.0,30.5,41.2,999.3,214.6,2.2,3.9,229.6,0.53,15.9,27.9,"13:52:56",1
"20/06/17","14:10",0.0,30.6,38.3,999.6,209.6,1.5,4.5,229.3,0.50,14.8,28.0,"14:06:32",1
"20/06/17","14:20",0.0,30.6,35.9,999.3,122.4,1.2,4.2,111.9,0.53,13.8,27.9,"14:13:12",1
"20/06/17","14:30",0.0,30.4,37.7,998.6,158.5,1.7,4.2,133.4,0.50,14.4,28.1,"14:25:04",1
"20/06/17","14:40",0.0,30.4,37.7,998.9,137.7,2.0,3.1,110.0,0.50,14.4,28.2,"14:37:44",1
"20/06/17","14:50",0.0,31.2,37.4,999.1,118.7,0.8,2.4,175.9,0.44,15.0,28.1,"14:40:24",1
"20/06/17","15:00",0.0,31.7,37.0,999.3,162.4,1.0,2.2,106.4,0.46,15.3,28.3,"14:58:08",1
"20/06/17","15:10",0.0,31.4,32.1,999.1,205.0,1.3,3.3,227.0,0.44,12.8,28.0,"15:04:56",1
"20/06/17","15:20",0.0,31.7,34.8,999.1,17.5,1.0,2.4,359.4,0.39,14.3,28.1,"15:12:32",1
"20/06/17","15:30",0.0,31.1,35.8,999.3,190.3,1.5,2.8,212.5,0.34,14.2,28.2,"15:25:20",1
"20/06/17","15:40",0.0,31.0,33.8,999.6,215.1,1.0,1.9,191.5,0.31,13.3,27.9,"15:36:08",1
"20/06/17","15:50",0.0,31.0,33.3,999.3,61.3,1.0,2.1,108.9,0.26,13.0,28.4,"15:43:20",1
"20/06/17","16:00",0.0,31.0,35.9,999.3,339.1,1.2,3.3,337.3,0.24,14.2,28.1,"15:56:56",1
"20/06/17","16:10",0.0,30.2,36.6,998.9,173.7,1.5,4.3,194.8,0.20,13.8,28.3,"16:00:24",1
"20/06/17","16:20",0.0,30.1,37.9,998.6,205.0,2.1,4.8,229.7,0.20,14.2,28.2,"16:18:00",1
"20/06/17","16:30",0.0,29.9,39.8,998.6,223.0,2.0,3.3,228.9,0.19,14.8,28.2,"16:20:08",1
"20/06/17","16:40",0.0,29.4,35.9,998.4,238.2,2.0,3.6,210.2,0.11,12.8,28.2,"16:30:16",1
"20/06/17","16:50",0.0,29.0,36.1,997.7,229.2,2.1,4.1,224.7,0.10,12.5,27.8,"16:43:36",1
"20/06/17","17:00",0.0,28.9,35.2,997.7,228.0,2.2,3.7,231.5,0.10,12.0,27.9,"16:51:36",1
"20/06/17","17:10",0.0,28.6,35.1,998.2,223.1,2.2,3.9,226.7,0.09,11.7,27.8,"17:03:28",1
"20/06/17","17:20",0.0,28.8,35.7,997.7,227.2,2.0,3.7,229.9,0.08,12.2,27.8,"17:14:16",1
"20/06/17","17:30",0.0,28.4,36.0,997.7,226.3,1.8,3.1,223.8,0.06,11.9,27.4,"17:26:08",1
"20/06/17","17:40",0.0,28.2,37.7,997.4,245.2,1.3,3.1,227.9,0.06,12.5,27.4,"17:36:24",1
"20/06/17","17:50",0.0,27.9,39.3,997.9,258.9,1.1,2.2,250.2,0.04,12.8,27.2,"17:49:28",1
"20/06/17","18:00",0.0,27.6,41.3,998.2,290.1,1.1,2.4,262.3,0.03,13.3,27.1,"17:51:52",1
"20/06/17","18:10",0.0,27.3,46.4,998.2,353.9,1.1,1.9,61.6,0.03,14.8,27.0,"18:02:24",1
"20/06/17","18:20",0.0,26.8,48.1,998.4,342.8,1.1,2.2,346.2,0.02,15.0,27.1,"18:13:20",1
"20/06/17","18:30",0.0,26.4,47.9,998.2,331.8,0.8,2.5,355.3,0.01,14.5,26.8,"18:29:44",1
"20/06/17","18:40",0.0,26.1,47.2,998.6,346.0,1.3,2.7,347.3,0.01,14.0,26.7,"18:31:52",1
"20/06/17","18:50",0.0,26.1,49.0,998.6,342.6,0.8,2.4,23.2,0.00,14.6,26.6,"18:41:20",1
"20/06/17","19:00",0.0,25.5,52.0,998.6,237.3,0.2,0.8,110.0,0.00,15.0,26.4,"18:50:56",1
"20/06/17","19:10",0.0,24.8,51.2,998.9,310.7,0.8,1.3,330.4,0.00,14.1,26.2,"19:08:08",1
"20/06/17","19:20",0.0,24.4,57.2,998.6,336.5,1.6,2.9,337.5,0.00,15.4,26.0,"19:18:48",1
"20/06/17","19:30",0.0,23.9,59.1,998.9,309.8,1.8,3.2,308.1,0.00,15.5,25.9,"19:21:28",1
"20/06/17","19:40",0.0,23.4,61.1,999.1,307.0,1.5,2.1,309.8,0.00,15.5,25.6,"19:38:08",1
"20/06/17","19:50",0.0,23.0,62.3,999.3,308.0,1.3,3.2,344.5,0.00,15.4,25.7,"19:46:08",1
"20/06/17","20:00",0.0,22.8,63.0,999.6,284.0,0.8,1.8,260.1,0.00,15.4,25.4,"19:56:08",1
"20/06/17","20:10",0.0,22.7,64.4,999.6,300.8,0.8,1.9,320.6,0.00,15.7,25.4,"20:07:04",1
"20/06/17","20:20",0.0,22.4,65.5,1000.0,328.6,1.8,2.9,327.8,0.00,15.7,25.1,"20:14:16",1
"20/06/17","20:30",0.0,22.2,65.7,1000.3,259.8,0.6,1.4,305.8,0.00,15.5,25.1,"20:25:44",1
"20/06/17","20:40",0.0,21.9,66.2,1000.0,286.8,1.0,2.0,328.1,0.00,15.4,25.0,"20:33:20",1
"20/06/17","20:50",0.0,21.8,66.7,1000.3,317.2,1.0,1.6,340.9,0.00,15.4,24.9,"20:40:08",1
"20/06/17","21:00",0.0,21.8,67.8,1000.3,300.9,1.0,1.6,287.8,0.00,15.6,24.7,"20:59:28",1
"20/06/17","21:10",0.0,21.5,68.2,1000.5,293.9,1.6,3.1,333.1,0.00,15.4,24.6,"21:02:40",1
"20/06/17","21:20",0.0,21.4,68.3,1000.8,315.9,1.1,3.1,326.0,0.00,15.4,24.5,"21:11:12",1
"20/06/17","21:30",0.0,21.1,68.6,1001.0,286.4,0.6,1.1,310.2,0.00,15.1,24.3,"21:29:20",1
"20/06/17","21:40",0.0,20.8,69.1,1001.0,283.6,0.6,1.4,261.6,0.00,15.0,24.4,"21:37:44",1
"20/06/17","21:50",0.0,20.8,69.9,1001.2,321.4,1.0,1.6,330.8,0.00,15.2,24.2,"21:47:28",1
"20/06/17","22:00",0.0,20.4,71.5,1001.2,288.5,0.8,1.8,297.1,0.00,15.1,24.0,"21:57:12",1
"20/06/17","22:10",0.0,20.3,72.2,1000.8,287.8,0.8,1.4,309.1,0.00,15.2,24.1,"22:07:04",1
"20/06/17","22:20",0.0,20.3,72.5,1001.0,295.0,1.0,2.2,306.2,0.00,15.2,23.9,"22:10:56",1
"20/06/17","22:30",0.0,20.2,72.3,1001.0,282.6,1.0,2.0,278.4,0.00,15.1,23.7,"22:25:28",1
"20/06/17","22:40",0.0,20.3,71.6,1001.0,304.6,1.1,2.1,332.1,0.00,15.0,23.7,"22:37:44",1
"20/06/17","22:50",0.0,20.4,71.5,1001.0,301.7,1.0,1.4,332.5,0.00,15.1,23.8,"22:44:32",1
"20/06/17","23:00",0.0,20.2,71.4,1001.0,283.3,0.8,1.2,320.9,0.00,14.9,23.9,"22:58:40",1
"20/06/17","23:10",0.0,20.2,71.8,1000.8,312.1,0.8,1.6,315.9,0.00,15.0,23.7,"23:04:32",1
"20/06/17","23:20",0.0,19.9,72.7,1001.0,297.1,0.7,1.4,304.8,0.00,14.9,23.3,"23:18:08",1
"20/06/17","23:30",0.0,19.8,73.2,1001.0,281.6,0.8,1.9,288.5,0.00,14.9,23.5,"23:28:40",1
"20/06/17","23:40",0.0,19.9,73.0,1001.0,285.7,1.2,1.8,265.5,0.00,15.0,23.4,"23:38:24",1
"20/06/17","23:50",0.0,19.8,72.6,1001.0,286.0,0.8,1.2,273.1,0.00,14.8,23.2,"23:40:16",1
"20/06/17","24:00",0.0,19.8,72.4,1001.5,302.2,1.0,2.0,333.9,0.00,14.7,23.1,"23:52:00",1
